Current Conditions
Clear
Conditions




Pressure
1018.32 (mb) - 30.07 (inHG)
Visibility

6.2 (mimiles) - 10.0 (km)
   Temperature
17  °C
63°F
13  °C
Dewpoint
77  %
 Humidity
   Wind Speed
0  mph
0  kts
0  km/h
0  m/s
   Wind Direction
Calm
Due North
   Airport Data
EGUL
Location RAF Lakenheath 4 mi (6.44 km)
Metar :EGUL 211055Z 00000KT 9999 CLR 17/13 A3007 RMK AO2A SLPNO
Mon 21st September 11:55 am
   Raw Metar Info
Raw METAR is the most common format in the world for the transmission of observational weather data. It is highly standardized through the International Civil Aviation Organization (ICAO), which allows it to be understood throughout most of the world.
   API Info
Data Provided by
https://www.checkwx.com/weather/EGUL
   © Info
CSS/SVG/PHP scripts were developed by weather34.com for use in the weather34 template © 2015-2020

Guide Info provided by Metar-Wikipedia